This demonstration page uses our WeatherBlox Daily Observations layout. Learn more.

Left ArrowRight Arrow

30.21309, -93.2044

Hourly Observations for January 25, 2022

Temp ( °F °C ) Dew Point ( °F °C ) Humidity (%) Winds ( mph kmh ) Pressure ( in mb ) Visibility ( mi km ) Precip ( " mm )
12:15 am 00:15 Cloudy with Drizzle 46 7.9 45 7 94 94 ENE 8 13 29.87 1012 7 11 0.01 0.25
12:35 am 00:35 Cloudy 46 8 45 7 93 93 N 10 17 29.89 1012 10 16 0.01 0.25
12:55 am 00:55 Cloudy 46 8 45 7 93 93 NNE 8 13 29.88 1012 10 16 0.01 0.25
1:15 am 01:15 Cloudy with Mist and Fog 46 8 45 7 93 93 ENE 9 15 29.87 1012 5 8 0.00 0.00
1:35 am 01:35 Cloudy with Mist and Fog 46 8 45 7.1 94 94 ENE 7 11 29.86 1011 5 8 0.00 0.00
1:55 am 01:55 Cloudy 47 8.1 45 7.2 94 94 ENE 8 13 29.86 1011 7 11 0.00 0.00
2:15 am 02:15 Cloudy with Light Rain 47 8.1 45 7.2 94 94 NNE 8 13 29.86 1011 10 16 0.00 0.00
2:35 am 02:35 Cloudy 47 8.1 45 7.1 93 93 NE 7 11 29.87 1012 10 16 0.00 0.00
2:55 am 02:55 Cloudy with Mist and Fog 47 8.1 45 7.2 94 94 NNE 7 11 29.87 1012 5 8 0.00 0.00
3:15 am 03:15 Cloudy with Mist and Fog 47 8.1 45 7.2 94 94 NNW 7 11 29.89 1012 4 6 0.00 0.00
3:35 am 03:35 Cloudy with Mist and Fog 47 8.2 45 7.4 95 95 NNW 7 11 29.90 1013 3 4 0.00 0.00
3:55 am 03:55 Cloudy with Drizzle 47 8.2 45 7.4 95 95 N 7 11 29.89 1012 3 4 0.00 0.00
4:15 am 04:15 Cloudy with Drizzle 47 8.3 46 7.5 95 95 N 7 11 29.90 1013 3 5 0.00 0.00
4:35 am 04:35 Cloudy with Mist and Fog 47 8.5 46 7.7 95 95 NNE 8 13 29.89 1012 5 8 0.00 0.00
4:55 am 04:55 Cloudy with Mist and Fog 47 8.6 46 7.8 95 95 N 7 11 29.89 1012 7 11 0.00 0.00
5:15 am 05:15 Cloudy 48 8.7 46 7.9 95 95 NNE 8 13 29.90 1013 10 16 0.00 0.00
5:35 am 05:35 Cloudy 48 8.9 46 8 94 94 N 7 11 29.91 1013 10 16 0.00 0.00
6:00 am 06:00 Cloudy 48 9 46 8 94 94 N 6 9 29.92 1013 10 16 0.00 0.00
6:48 am 06:48 Cloudy 48 9 46 8 94 94 N 13 20 29.94 1014 10 16 0.00 0.00
7:47 am 07:47 Cloudy 48 9 46 8 94 94 N 12 19 29.96 1015 10 16 0.00 0.00
8:55 am 08:55 Cloudy with Light Rain 48 9 46 8 94 94 N 12 19 30.01 1016 2 3 0.00 0.00
9:48 am 09:48 Cloudy 50 10 48 9 94 94 NNE 13 20 30.03 1017 10 16 0.00 0.00
10:47 am 10:47 Cloudy 52 11 46 8 82 82 NNE 13 20 30.05 1018 10 16 0.00 0.00
11:47 am 11:47 Cloudy 52 11 48 9 88 88 NE 14 22 30.04 1017 10 16 0.00 0.00
12:50 pm 12:50 Cloudy 54 12 48 9 82 82 NNE 13 20 30.02 1017 10 16 0.00 0.00
1:55 pm 13:55 Cloudy 55 13 48 9 77 77 NNE 13 20 30.01 1016 10 16 0.00 0.00
2:50 pm 14:50 Cloudy 57 14 48 9 72 72 NNE 13 20 30.01 1016 10 16 0.00 0.00
3:55 pm 15:55 Cloudy 55 13 48 9 77 77 NE 13 20 30.03 1017 10 16 0.00 0.00
4:53 pm 16:53 Cloudy 54 12 46 8 77 77 NE 13 20 30.06 1018 10 16 0.00 0.00
5:55 pm 17:55 Cloudy 52 11 46 8 82 82 NNE 14 22 30.09 1019 10 16 0.00 0.00
6:56 pm 18:56 Cloudy 52 11 46 8 82 82 NNE 9 15 30.12 1020 10 16 0.00 0.00
7:51 pm 19:51 Cloudy 50 10 45 7 82 82 NNE 13 20 30.15 1021 10 16 0.00 0.00
8:52 pm 20:52 Cloudy 50 10 43 6 76 76 NE 15 24 30.16 1021 10 16 0.00 0.00
9:51 pm 21:51 Cloudy 48 9 43 6 82 82 NE 7 11 30.17 1022 10 16 0.00 0.00
10:15 pm 22:15 Clear 47 8.3 42 5.4 82 82 NE 7 11 30.17 1022 10 16 0.00 0.00
10:35 pm 22:35 Clear 47 8.3 41 4.8 79 79 NE 13 20 30.19 1022 10 16 0.00 0.00
10:55 pm 22:55 Clear 47 8.2 40 4.4 77 77 NE 10 17 30.20 1023 10 16 0.00 0.00
11:15 pm 23:15 Clear 46 7.8 40 4.2 78 78 NE 12 19 30.19 1022 10 16 0.00 0.00
11:35 pm 23:35 Clear 46 7.6 39 3.8 77 77 NE 10 17 30.20 1023 10 16 0.00 0.00
11:55 pm 23:55 Clear 45 7.2 38 3.3 77 77 NE 13 20 30.21 1023 10 16 0.00 0.00

Powered by AerisWeather